COSMOS 2251 DEB, 33920

Orbit data source: Space-Track

COSMOS 2251 DEB, 33920 is space debris in LEO originally from a launch on Wed, 16 Jun 1993 UTC launched from the Plesetsk Missile And Space Complex (PKMTR). The debris from Iridium 33, an American commercial communications satellite, has been tracked extensively since its accidental collision with the defunct Russian satellite Cosmos 2251 in 2009. This event, occurring at high speed in low Earth orbit (LEO), generated thousands of pieces of space debris, significantly increasing the risk of further collisions. The Iridium 33 debris cloud has impacted space traffic management and orbital debris mitigation strategies, making it a subject of ongoing study in space situational awareness.

Loading next visibility...
Identifier
33920, 1993-036DZ
Orbit
LEO
Country
Flag of CISCIS
Related business
Manufacturer
Unknown
Mission
Spacecraft
Bus & Motor
Unknown
Mass
Unknown
Launch date (UTC)
1993-06-16 (33 years ago)
Launch vehicle
Unknown
Launch site
Plesetsk Missile And Space Complex (PKMTR)
Object type
Payload
Rocket body
Debris
Shape & HBR
Unknown shape, 0.1 m
Radar Cross Section
Small (<0.1 m²)

Expand to show TLE details & history
Last TLE update: 7 hours ago

TLE from 7 hours ago
0 COSMOS 2251 DEB
1 33920U 93036DZ  26034.44209950  .00011387  00000-0  23923-2 0  9997
2 33920  74.0597 198.2102 0034740 194.7706 165.2448 14.59282451888832
Epoch: 2026-02-03T10:36Z
TLE epoch observation values (Epoch: 2026-02-03T10:36:37.396Z)
Latitude
-0.00006°
Longitude
-94.56861°
Altitude
721.905 km
Speed
7.482 km/s
True Right ascension
13h 12m 50s
True Declination
0° 00' 00"
Sunlit
Object was in full shadow at epoch
Visualization orbit readout
Latitude
Unknown
Longitude
Unknown
Altitude
Unknown
Speed
Unknown
Apparent Right ascension
Unknown
Apparent Declination
Unknown
Sunlit
N/A
Visualization observer readout
Local Sidereal Time
19:37:33
Azimuth
Unknown
Elevation
Unknown
Doppler factor
Unknown
Orbital elements
Apogee altitude
717.654 km
Perigee altitude
668.523 km
Semi-major axis
7,071.225 km
Eccentricity
0.00347
Inclination
74.0597°
RAAN
198.2102°
Arg. of periapsis
194.7706°
True anomaly
165.34577°
Mean anomaly
165.2448°
Eccentric anomaly
165.29533°
Mean motion
3.65007 °/min
Orbital period
98.63 mins
BSTAR
0.0023923
Loading maneuver chart data...
Computing Atmospheric mass density...

Documentation

Showing up to 5 results
|